Location: Eckley Miners' Village
(40.9930°N, 75.8630°W)
Time: 00:57:48
(UTC-04:00)

Vanguard 1 Rocket - Pass Details

Date: 23 March 2026
Orbit: 654 x 4213 km, 34.3° (Epoch: 20 April)

Event Time Altitude Azimuth Distance (km) Brightness Sun altitude
Exits shadow 06:31:01 - 246° (WSW) 4,336 10.2 -6.6°
Reaches altitude 10° 06:32:52 10° 243° (WSW) 3,666 9.9 -6.3°
Maximum altitude 06:40:38 43° 176° (S) 1,351 8.3 -4.8°
Drops below altitude 10° 06:45:28 10° 104° (ESE) 2,281 10.9 -3.9°
Sets 06:47:34 0° 97° (E) 3,071 12.3 -3.5°
